Wind_Speed
16 21 25 25 24 22 20 20 19 17 16 14 12 11 9 8 7 6 9 10 12 13 15 14 14 15 13 11 11 11 10 13 14 15 15 14 13 13 14 15 14 14 13
15 21 24 25 24 22 21 20 19 17 15 14 13 12 11 9 8 8 10 13 15 15 11 11 16 15 14 15 12 12 12 14 14 14 14 14 14 13 13 13 12 11 9
13 21 23 25 23 21 21 19 18 17 15 13 13 12 11 11 10 11 11 14 16 15 11 11 15 15 15 14 13 13 13 13 14 14 14 14 13 12 11 10 8 6 7
10 18 22 24 22 21 20 19 18 17 15 13 12 12 11 12 12 14 12 13 15 16 12 13 15 15 15 15 13 13 12 11 12 12 10 10 10 8 6 6 6 8 9
14 17 20 22 21 20 20 19 18 17 15 14 12 11 12 12 14 14 16 14 14 13 11 15 16 16 15 13 12 12 11 10 10 9 7 6 6 7 8 7 8 8 8
15 16 19 20 20 19 18 17 17 16 16 14 13 13 12 14 15 16 17 14 9 11 14 16 16 15 14 13 11 10 9 9 9 8 7 7 6 7 7 7 7 7 7
16 16 17 19 20 19 17 16 16 16 16 16 15 15 14 15 17 18 16 11 11 13 15 16 15 13 12 11 10 9 9 8 8 7 7 6 6 6 6 6 6 6 7
11 15 18 18 19 18 17 16 16 16 16 17 17 16 15 16 18 18 16 13 13 15 16 15 15 12 10 9 9 8 8 8 8 7 6 5 5 5 5 5 5 6 7
11 14 16 18 19 19 18 17 17 17 17 18 18 18 17 18 19 19 17 15 15 17 17 16 15 13 11 9 8 7 7 7 7 6 5 4 3 3 3 4 5 6 6
11 14 17 17 20 20 20 20 19 18 19 18 19 19 19 19 18 20 18 17 16 18 18 17 16 14 12 10 9 7 7 6 6 4 4 2 2 2 2 3 4 5 5
14 16 17 18 18 20 19 19 18 17 18 19 18 19 19 21 19 21 20 17 17 19 19 18 17 15 13 11 10 8 7 6 5 4 3 1 1 1 2 3 3 4 4
17 19 20 19 18 21 20 20 19 19 19 21 20 20 21 21 21 22 21 19 19 21 21 20 18 17 15 13 11 9 8 6 5 4 4 2 1 2 2 4 4 5 5
11 19 21 21 20 21 20 20 19 18 19 20 21 21 21 23 23 22 24 23 22 23 24 23 21 19 16 14 12 11 10 8 6 5 5 4 2 2 2 4 6 6 7
14 15 20 24 22 23 22 20 18 18 18 20 20 21 23 24 25 26 26 26 25 26 27 25 23 20 18 16 14 13 12 10 9 8 6 5 5 3 2 4 6 8 8
16 16 18 21 22 22 23 22 19 18 16 14 14 15 23 24 26 28 27 27 26 26 30 28 25 22 20 18 16 15 14 12 11 11 10 7 5 5 5 4 5 6 6
20 17 19 21 22 22 22 21 20 20 20 16 17 16 17 19 26 29 29 28 29 28 30 29 26 24 21 19 17 16 15 15 14 13 11 10 8 6 7 7 8 9 10
26 20 18 20 23 24 24 22 23 25 23 20 23 23 20 22 27 32 33 32 34 31 30 29 27 25 22 21 19 18 17 17 16 14 13 12 12 12 12 12 11 13 14
30 27 21 20 24 24 26 26 26 30 28 27 28 27 28 27 29 36 35 34 39 35 33 32 29 27 25 22 20 18 18 18 18 17 15 14 14 14 15 17 15 16 17
31 32 26 24 25 25 25 27 30 35 33 30 30 29 30 30 32 38 38 38 40 43 38 33 31 29 26 23 20 17 17 18 18 18 18 18 16 15 15 15 16 18 19
28 35 29 27 25 25 25 28 29 30 31 30 31 32 34 34 35 33 43 44 43 40 36 34 31 30 28 24 20 19 19 19 20 21 21 20 18 16 18 16 18 19 20
28 34 35 30 27 28 24 25 28 30 29 30 28 31 33 32 33 31 39 47 45 38 29 30 31 30 28 23 20 21 21 21 23 24 24 21 21 19 20 18 20 21 19
32 28 33 33 30 29 29 26 26 24 25 26 26 28 34 30 33 28 36 36 31 24 29 33 30 31 29 24 21 20 21 22 26 26 24 24 22 21 21 21 22 21 19
30 29 32 33 32 31 30 26 24 24 25 23 26 20 26 27 29 31 28 23 28 35 40 33 28 31 28 24 23 20 8 13 12 17 25 24 23 24 25 24 25 23 20
23 27 30 31 32 31 27 26 26 25 24 22 19 19 23 25 28 34 33 27 17 21 32 30 27 31 28 27 26 26 29 18 7 5 8 13 21 26 28 29 26 24 22
22 27 33 32 30 28 27 25 23 23 23 21 18 17 21 22 26 32 36 27 32 25 27 34 35 35 32 31 30 30 28 29 30 30 27 24 23 23 26 31 32 30 28
20 22 28 30 29 26 24 21 19 21 24 25 24 23 22 19 22 30 33 29 26 24 28 31 33 32 32 33 32 32 30 29 25 27 29 30 34 34 40 36 36 37 33
Wind_Direction
189 182 179 179 180 184 181 179 177 177 180 181 182 183 177 168 159 144 129 123 124 129 132 137 131 125 136 129 118 129 124 116 109 110 104 99 103 100 97 92 87 84 80
195 184 180 183 182 183 186 185 183 183 185 189 188 188 180 172 165 154 139 123 122 118 123 124 127 128 137 129 128 115 120 119 114 114 109 102 99 98 97 96 90 89 83
191 186 182 184 180 184 186 187 187 186 186 188 188 184 182 174 169 157 144 134 127 138 141 128 131 130 126 123 118 113 114 115 114 118 115 108 100 105 105 105 107 93 59
192 187 184 186 185 183 186 188 190 190 191 189 187 187 181 177 171 164 166 151 154 156 157 138 137 132 125 122 119 116 112 115 116 123 114 102 105 107 114 96 77 66 58
182 186 187 189 191 188 186 191 191 192 195 195 195 188 181 182 175 174 169 168 175 171 160 145 139 133 128 124 125 124 115 113 118 123 121 106 94 94 93 83 71 63 56
192 186 190 193 194 196 199 195 196 196 198 199 196 193 192 187 181 174 171 182 173 171 155 148 144 141 134 128 126 125 119 113 113 113 112 110 102 88 83 78 67 59 50
195 195 202 201 197 198 201 201 202 203 204 203 203 200 198 195 186 185 187 189 180 164 160 155 152 150 142 135 129 124 117 116 113 111 109 105 98 86 77 70 61 50 39
218 211 207 207 203 202 203 206 210 210 208 206 207 206 206 202 195 195 192 188 182 172 168 165 162 161 155 144 135 131 120 119 120 117 112 105 96 83 68 58 48 39 37
235 224 221 214 208 208 211 211 214 213 213 210 208 207 207 207 203 200 199 193 187 180 178 176 174 171 167 158 147 142 136 132 132 130 124 114 92 71 54 41 36 36 35
230 228 222 223 212 210 215 216 216 214 210 209 210 209 208 210 210 207 205 203 194 187 184 183 181 179 176 173 167 162 156 154 149 144 141 130 93 59 30 20 21 21 22
224 227 227 225 227 227 225 225 223 219 210 206 214 211 212 212 208 211 211 212 202 194 190 187 187 187 188 189 187 185 182 177 181 178 177 169 198 320 336 341 347 353 -0
230 228 228 229 230 230 234 230 227 224 220 210 210 213 212 217 214 214 215 219 214 201 196 193 191 192 197 203 206 204 201 200 197 208 208 215 232 264 298 307 316 321 326
256 232 229 230 231 234 242 232 228 229 228 218 216 212 216 219 216 218 221 221 218 211 202 197 197 200 201 207 216 218 220 221 221 218 219 221 244 259 291 306 303 306 314
274 252 240 231 230 234 230 237 231 241 238 224 222 220 214 222 217 218 223 222 220 216 207 203 202 203 205 210 216 224 227 231 232 228 226 226 240 249 271 306 300 296 298
264 257 248 237 227 230 228 229 231 235 228 230 246 243 231 220 222 225 227 228 228 224 214 209 206 205 207 213 219 225 229 232 239 238 232 231 241 262 252 297 314 298 307
252 253 242 233 227 230 232 232 230 232 229 215 219 230 240 255 232 231 230 234 240 232 221 214 211 210 211 216 220 225 229 235 238 238 229 232 243 245 250 278 298 305 308
243 250 241 225 226 228 228 230 236 220 214 235 239 244 253 252 251 241 234 237 246 233 225 218 216 216 216 221 223 230 232 235 237 234 234 242 242 247 254 266 291 300 300
240 242 244 230 227 228 228 232 233 225 238 255 251 251 254 254 250 239 238 238 247 233 226 221 218 220 222 227 230 233 241 238 240 237 243 240 244 254 262 265 275 290 296
236 234 237 237 229 224 231 231 231 234 247 251 250 254 254 251 247 239 237 241 240 240 221 223 222 221 228 230 237 239 243 241 239 238 245 247 251 254 264 266 273 286 295
234 231 232 236 235 228 234 236 236 238 241 245 250 255 253 255 247 237 233 236 238 245 221 225 225 225 229 230 241 245 246 245 243 245 247 247 247 254 258 267 278 285 290
233 232 225 229 231 231 233 235 236 239 242 249 255 258 258 254 243 237 240 240 245 239 223 237 233 233 233 231 243 247 250 247 248 250 250 250 253 258 255 261 274 286 286
228 238 226 221 226 230 234 241 243 246 247 253 257 255 254 248 237 237 230 233 229 214 215 229 240 241 237 235 240 254 263 263 256 253 252 255 259 258 256 263 275 280 279
229 228 227 226 221 225 228 234 245 246 252 252 263 256 237 242 234 228 229 235 240 222 203 216 239 245 241 240 241 239 241 240 266 263 253 254 257 256 259 262 271 272 270
231 226 226 229 225 226 228 235 235 244 246 261 266 265 243 239 240 228 228 223 206 218 220 217 235 243 246 248 247 246 238 250 270 286 261 262 264 264 268 265 263 264 259
249 234 225 225 225 224 230 227 235 237 239 247 249 248 237 239 237 234 226 217 229 217 202 226 237 239 242 248 249 246 245 248 257 264 273 273 273 277 283 277 266 261 255
240 231 225 219 216 216 218 226 232 238 235 238 242 250 248 248 238 233 224 226 223 219 212 231 232 238 243 245 244 245 248 250 253 263 267 269 280 287 287 273 268 262 250
Height
1501 1503 1507 1511 1513 1515 1517 1520 1523 1525 1527 1529 1530 1531 1532 1534 1535 1535 1536 1537 1537 1538 1539 1540 1541 1543 1544 1545 1546 1547 1548 1549 1549 1549 1550 1550 1551 1551 1551 1551 1551 1551 1551
1502 1504 1507 1511 1514 1515 1517 1520 1523 1525 1527 1529 1530 1532 1533 1534 1535 1537 1537 1538 1539 1540 1541 1541 1542 1544 1545 1546 1547 1548 1549 1550 1551 1551 1552 1552 1553 1553 1553 1553 1553 1553 1552
1503 1505 1508 1511 1515 1517 1519 1520 1523 1525 1527 1529 1530 1532 1534 1534 1535 1537 1538 1539 1540 1542 1542 1542 1544 1546 1546 1547 1549 1550 1551 1552 1552 1553 1553 1553 1554 1555 1555 1555 1554 1554 1554
1504 1506 1509 1512 1514 1517 1519 1521 1523 1525 1527 1529 1531 1532 1534 1535 1536 1538 1539 1541 1542 1542 1543 1543 1544 1546 1548 1550 1551 1552 1553 1553 1554 1555 1555 1555 1555 1556 1556 1556 1555 1555 1555
1504 1506 1508 1512 1515 1518 1520 1522 1523 1525 1527 1529 1531 1532 1533 1535 1537 1538 1539 1541 1543 1544 1543 1544 1545 1547 1549 1551 1552 1553 1554 1555 1555 1556 1557 1557 1557 1557 1557 1557 1557 1556 1556
1506 1506 1509 1511 1514 1517 1520 1521 1523 1525 1527 1530 1531 1533 1534 1535 1537 1539 1540 1541 1543 1544 1545 1545 1547 1548 1550 1552 1553 1554 1555 1556 1557 1557 1557 1558 1558 1558 1558 1558 1558 1557 1557
1507 1509 1511 1512 1514 1517 1519 1521 1522 1524 1526 1528 1531 1533 1534 1535 1537 1538 1540 1542 1543 1545 1546 1546 1548 1550 1551 1552 1553 1555 1556 1557 1558 1558 1559 1559 1559 1559 1559 1559 1559 1558 1558
1508 1509 1511 1513 1515 1518 1519 1520 1522 1523 1524 1527 1529 1532 1534 1535 1537 1538 1540 1541 1543 1545 1546 1547 1548 1550 1552 1553 1554 1555 1556 1557 1558 1559 1559 1560 1559 1560 1560 1560 1559 1559 1558
1509 1510 1512 1513 1515 1517 1518 1519 1521 1522 1523 1525 1527 1530 1533 1535 1537 1538 1540 1541 1543 1544 1546 1547 1548 1550 1552 1553 1554 1555 1556 1557 1558 1559 1560 1560 1560 1560 1561 1561 1560 1559 1559
1509 1510 1511 1512 1514 1515 1517 1518 1519 1521 1522 1524 1526 1528 1531 1534 1536 1537 1539 1540 1542 1544 1545 1547 1549 1549 1551 1553 1554 1555 1556 1557 1558 1559 1560 1560 1561 1561 1561 1561 1561 1560 1560
1506 1508 1510 1512 1513 1515 1516 1517 1519 1520 1521 1523 1525 1527 1530 1532 1534 1537 1539 1540 1541 1543 1545 1546 1548 1550 1551 1552 1553 1555 1556 1557 1557 1558 1559 1560 1560 1560 1561 1560 1560 1560 1559
1505 1506 1508 1510 1512 1513 1513 1515 1517 1518 1519 1521 1523 1526 1527 1530 1533 1535 1537 1540 1541 1542 1544 1545 1547 1549 1550 1551 1553 1554 1556 1557 1557 1558 1558 1559 1559 1559 1560 1560 1560 1560 1559
1502 1503 1504 1507 1510 1512 1513 1513 1516 1517 1517 1519 1521 1523 1526 1528 1531 1533 1535 1537 1540 1541 1542 1544 1546 1547 1549 1550 1552 1553 1554 1556 1557 1557 1558 1558 1558 1559 1559 1559 1559 1559 1559
1499 1500 1501 1503 1506 1508 1510 1512 1514 1515 1516 1517 1519 1522 1524 1527 1529 1531 1532 1534 1537 1539 1541 1542 1544 1546 1547 1549 1550 1551 1552 1554 1555 1556 1556 1557 1557 1557 1558 1558 1558 1558 1557
1495 1497 1498 1499 1502 1505 1508 1509 1511 1512 1514 1516 1518 1521 1523 1524 1527 1529 1530 1534 1535 1537 1539 1541 1542 1543 1545 1547 1548 1549 1550 1551 1553 1554 1555 1555 1556 1556 1556 1556 1556 1556 1556
1491 1492 1494 1495 1497 1501 1505 1507 1508 1509 1511 1513 1515 1518 1520 1522 1525 1527 1528 1531 1533 1535 1537 1540 1541 1542 1544 1544 1546 1547 1548 1549 1550 1551 1552 1553 1554 1555 1554 1554 1554 1554 1554
1486 1487 1488 1491 1493 1495 1500 1503 1504 1505 1507 1509 1511 1513 1516 1518 1521 1521 1525 1528 1530 1531 1535 1538 1539 1540 1541 1543 1543 1544 1545 1546 1547 1549 1550 1551 1552 1552 1553 1553 1553 1553 1552
1479 1482 1484 1486 1488 1491 1494 1497 1501 1503 1503 1505 1507 1509 1511 1513 1515 1518 1518 1522 1526 1526 1530 1532 1535 1537 1539 1540 1541 1542 1543 1544 1544 1546 1547 1548 1549 1550 1551 1551 1551 1550 1549
1471 1475 1477 1480 1482 1486 1489 1491 1495 1498 1498 1500 1501 1503 1505 1507 1510 1512 1515 1516 1518 1521 1523 1529 1531 1532 1536 1537 1539 1540 1541 1541 1542 1542 1543 1544 1546 1546 1548 1548 1548 1547 1547
1465 1468 1470 1473 1476 1480 1483 1486 1489 1490 1492 1495 1496 1498 1499 1501 1503 1506 1510 1511 1512 1515 1515 1524 1528 1529 1531 1533 1535 1536 1537 1538 1538 1538 1539 1541 1542 1542 1544 1544 1545 1544 1543
1457 1459 1463 1466 1470 1473 1476 1479 1481 1483 1486 1488 1490 1491 1492 1494 1497 1501 1504 1507 1510 1512 1515 1521 1525 1529 1529 1529 1532 1532 1533 1533 1533 1533 1535 1536 1538 1538 1539 1539 1541 1540 1540
1449 1452 1456 1460 1465 1468 1471 1474 1475 1477 1479 1482 1483 1484 1485 1487 1491 1495 1498 1502 1506 1507 1514 1520 1523 1527 1526 1527 1528 1530 1531 1530 1528 1529 1531 1532 1534 1534 1535 1536 1536 1536 1535
1442 1445 1450 1454 1459 1462 1466 1468 1470 1472 1474 1475 1477 1478 1480 1483 1485 1489 1493 1497 1501 1502 1506 1512 1517 1523 1521 1524 1525 1528 1527 1525 1525 1524 1527 1528 1529 1530 1531 1531 1531 1531 1531
1437 1441 1444 1448 1452 1457 1460 1463 1465 1467 1468 1470 1471 1474 1476 1479 1482 1485 1489 1493 1495 1499 1505 1510 1514 1516 1518 1521 1523 1523 1523 1522 1524 1523 1523 1523 1525 1526 1527 1526 1526 1526 1526
1433 1435 1439 1443 1447 1452 1455 1459 1462 1463 1465 1468 1470 1471 1474 1476 1478 1482 1485 1488 1491 1494 1500 1506 1509 1510 1512 1516 1517 1517 1517 1518 1520 1520 1519 1518 1519 1521 1521 1520 1520 1520 1518
1428 1431 1434 1439 1443 1447 1451 1455 1457 1459 1461 1463 1467 1469 1469 1471 1474 1477 1480 1484 1486 1490 1494 1501 1505 1506 1509 1510 1512 1511 1511 1512 1514 1515 1514 1513 1513 1510 1511 1513 1512 1512 1513